• In Austria
  • List of Countries
  • For 7 days
  • Water Temperature
  • Satellite Maps
  • Weather Map
  • News
  • Weather Widgets
  • user-avatar
    Login

    Hourly Weather Lubango

    Today, 25 February, Sunday

    Time Temperature Precipitation Wind Pressure Humidity
    00:00 +16°C° 0.3 mm 1 mps 608 mmHg 86%
    01:00 +16°C° 0 mm 1 mps 608 mmHg 88%
    02:00 +15°C° 0.3 mm 0 mps 608 mmHg 88%
    03:00 +14°C° 0.3 mm 0 mps 608 mmHg 89%
    04:00 +14°C° 0.3 mm 0 mps 607 mmHg 89%
    05:00 +15°C° 0.2 mm 0 mps 608 mmHg 88%
    06:00 +15°C° 0.2 mm 0 mps 608 mmHg 86%
    07:00 +16°C° 0 mm 1 mps 609 mmHg 82%
    08:00 +19°C° 0.1 mm 1 mps 610 mmHg 73%
    09:00 +21°C° 0.1 mm 1 mps 610 mmHg 64%
    10:00 +23°C° 0.1 mm 2 mps 611 mmHg 54%
    11:00 +24°C° 0.5 mm 2 mps 611 mmHg 52%
    12:00 +25°C° 0.5 mm 2 mps 611 mmHg 50%
    13:00 +25°C° 0.5 mm 3 mps 611 mmHg 48%
    14:00 +25°C° 1.1 mm 3 mps 610 mmHg 51%
    15:00 +24°C° 1.1 mm 3 mps 610 mmHg 54%
    16:00 +22°C° 1.1 mm 4 mps 609 mmHg 58%
    17:00 +21°C° 0.9 mm 3 mps 609 mmHg 64%
    18:00 +19°C° 0.9 mm 3 mps 609 mmHg 70%
    19:00 +17°C° 0.9 mm 2 mps 608 mmHg 76%
    20:00 +16°C° 0.1 mm 2 mps 608 mmHg 79%
    21:00 +16°C° 0.1 mm 1 mps 608 mmHg 82%
    22:00 +15°C° 0.1 mm 1 mps 609 mmHg 85%
    23:00 +14°C° 0 mm 1 mps 608 mmHg 86%

    Tomorrow, 26 February, Monday

    Time Temperature Precipitation Wind Pressure Humidity
    00:00 +14°C° 0 mm 1 mps 608 mmHg 87%
    01:00 +14°C° 0 mm 1 mps 607 mmHg 89%
    02:00 +13°C° 0 mm 1 mps 607 mmHg 88%
    03:00 +13°C° 0 mm 1 mps 607 mmHg 87%
    04:00 +13°C° 0 mm 1 mps 607 mmHg 87%
    05:00 +13°C° 0 mm 1 mps 607 mmHg 83%
    06:00 +14°C° 0 mm 1 mps 607 mmHg 80%
    07:00 +14°C° 0 mm 1 mps 608 mmHg 77%
    08:00 +18°C° 0 mm 1 mps 609 mmHg 67%
    09:00 +20°C° 0 mm 1 mps 610 mmHg 56%
    10:00 +23°C° 0 mm 1 mps 611 mmHg 46%
    11:00 +24°C° 0 mm 2 mps 611 mmHg 44%
    12:00 +25°C° 0 mm 2 mps 611 mmHg 41%
    13:00 +26°C° 0 mm 2 mps 611 mmHg 39%
    14:00 +25°C° 0.1 mm 2 mps 610 mmHg 43%
    15:00 +25°C° 0.1 mm 3 mps 610 mmHg 47%
    16:00 +24°C° 0.1 mm 3 mps 609 mmHg 51%
    17:00 +21°C° 0.2 mm 3 mps 609 mmHg 60%
    18:00 +19°C° 0.2 mm 2 mps 608 mmHg 68%
    19:00 +17°C° 0.2 mm 2 mps 608 mmHg 76%
    20:00 +16°C° 0 mm 2 mps 608 mmHg 80%
    21:00 +15°C° 0 mm 1 mps 608 mmHg 84%
    22:00 +15°C° 0 mm 1 mps 608 mmHg 88%
    23:00 +14°C° 0 mm 1 mps 608 mmHg 90%

    Day after tomorrow, 27 February, Tuesday

    Time Temperature Precipitation Wind Pressure Humidity
    00:00 +14°C° 0 mm 1 mps 608 mmHg 92%
    01:00 +13°C° 0 mm 1 mps 608 mmHg 93%
    02:00 +13°C° 0 mm 1 mps 607 mmHg 93%
    03:00 +12°C° 0 mm 0 mps 607 mmHg 93%
    04:00 +12°C° 0 mm 0 mps 607 mmHg 93%
    05:00 +12°C° 0 mm 0 mps 607 mmHg 90%
    06:00 +13°C° 0 mm 0 mps 608 mmHg 87%
    07:00 +13°C° 0 mm 0 mps 608 mmHg 83%
    08:00 +16°C° 0 mm 0 mps 609 mmHg 73%
    09:00 +21°C° 0 mm 1 mps 610 mmHg 62%
    10:00 +23°C° 0 mm 1 mps 612 mmHg 52%
    11:00 +24°C° 0.1 mm 1 mps 611 mmHg 48%
    12:00 +25°C° 0.1 mm 1 mps 611 mmHg 45%
    13:00 +26°C° 0.1 mm 2 mps 611 mmHg 41%
    14:00 +26°C° 0.2 mm 2 mps 610 mmHg 45%
    15:00 +25°C° 0.2 mm 2 mps 609 mmHg 49%
    16:00 +24°C° 0.2 mm 3 mps 608 mmHg 53%
    17:00 +21°C° 0.2 mm 3 mps 608 mmHg 59%
    18:00 +20°C° 0.2 mm 2 mps 608 mmHg 66%
    19:00 +18°C° 0.2 mm 2 mps 608 mmHg 72%
    20:00 +17°C° 0.2 mm 2 mps 608 mmHg 75%
    21:00 +17°C° 0.2 mm 2 mps 609 mmHg 79%
    22:00 +16°C° 0.2 mm 1 mps 609 mmHg 82%
    23:00 +16°C° 0.2 mm 1 mps 609 mmHg 83%

    28 February, Wednesday

    Time Temperature Precipitation Wind Pressure Humidity
    00:00 +15°C° 0.2 mm 1 mps 609 mmHg 85%
    01:00 +15°C° 0.2 mm 1 mps 609 mmHg 86%
    02:00 +15°C° 0.1 mm 1 mps 609 mmHg 87%
    03:00 +15°C° 0.1 mm 1 mps 608 mmHg 88%
    04:00 +14°C° 0.1 mm 1 mps 608 mmHg 89%
    05:00 +15°C° 0.1 mm 1 mps 608 mmHg 88%
    06:00 +15°C° 0.1 mm 1 mps 609 mmHg 87%
    07:00 +15°C° 0.1 mm 1 mps 609 mmHg 87%
    08:00 +18°C° 0 mm 1 mps 610 mmHg 78%
    09:00 +19°C° 0 mm 1 mps 611 mmHg 70%
    10:00 +21°C° 0 mm 1 mps 612 mmHg 62%
    11:00 +23°C° 0.2 mm 1 mps 611 mmHg 56%
    12:00 +24°C° 0.2 mm 2 mps 611 mmHg 50%
    13:00 +25°C° 0.2 mm 2 mps 611 mmHg 44%
    14:00 +24°C° 0.6 mm 2 mps 611 mmHg 47%
    15:00 +24°C° 0.6 mm 3 mps 610 mmHg 49%
    16:00 +22°C° 0.6 mm 3 mps 609 mmHg 51%
    17:00 +21°C° 0.3 mm 3 mps 609 mmHg 59%
    18:00 +19°C° 0.3 mm 3 mps 609 mmHg 67%
    19:00 +17°C° 0.3 mm 2 mps 608 mmHg 75%
    20:00 +16°C° 0 mm 2 mps 609 mmHg 78%
    21:00 +15°C° 0 mm 2 mps 609 mmHg 82%
    22:00 +15°C° 0 mm 2 mps 609 mmHg 86%
    23:00 +14°C° 0 mm 1 mps 609 mmHg 88%

    1 March, Thursday

    Time Temperature Precipitation Wind Pressure Humidity
    00:00 +14°C° 0 mm 1 mps 609 mmHg 89%
    01:00 +14°C° 0 mm 1 mps 608 mmHg 91%
    02:00 +13°C° 0 mm 1 mps 608 mmHg 92%
    03:00 +13°C° 0 mm 1 mps 607 mmHg 92%
    04:00 +11°C° 0 mm 0 mps 607 mmHg 93%
    05:00 +13°C° 0 mm 1 mps 607 mmHg 89%
    06:00 +14°C° 0 mm 1 mps 608 mmHg 84%
    07:00 +14°C° 0 mm 1 mps 608 mmHg 79%
    08:00 +18°C° 0 mm 1 mps 610 mmHg 66%
    09:00 +21°C° 0 mm 1 mps 611 mmHg 54%
    10:00 +23°C° 0 mm 1 mps 612 mmHg 41%
    11:00 +24°C° 0 mm 2 mps 612 mmHg 38%
    12:00 +25°C° 0 mm 2 mps 611 mmHg 35%
    13:00 +26°C° 0 mm 2 mps 611 mmHg 33%
    14:00 +26°C° 0.1 mm 3 mps 610 mmHg 34%
    15:00 +26°C° 0.1 mm 3 mps 610 mmHg 35%
    16:00 +25°C° 0.1 mm 3 mps 609 mmHg 36%
    17:00 +22°C° 0 mm 3 mps 608 mmHg 43%
    18:00 +19°C° 0 mm 2 mps 608 mmHg 50%
    19:00 +17°C° 0 mm 2 mps 607 mmHg 56%
    20:00 +16°C° 0 mm 2 mps 607 mmHg 59%
    21:00 +15°C° 0 mm 1 mps 608 mmHg 62%
    22:00 +14°C° 0 mm 1 mps 608 mmHg 65%
    23:00 +14°C° 0 mm 1 mps 607 mmHg 67%

    2 March, Friday

    Time Temperature Precipitation Wind Pressure Humidity
    00:00 +13°C° 0 mm 1 mps 607 mmHg 70%
    01:00 +13°C° 0 mm 1 mps 607 mmHg 72%
    02:00 +12°C° 0 mm 1 mps 606 mmHg 73%
    03:00 +12°C° 0 mm 1 mps 606 mmHg 74%
    04:00 +11°C° 0 mm 1 mps 606 mmHg 75%
    05:00 +12°C° 0 mm 1 mps 606 mmHg 74%
    06:00 +12°C° 0 mm 1 mps 607 mmHg 72%
    07:00 +13°C° 0 mm 1 mps 608 mmHg 71%
    08:00 +16°C° 0 mm 1 mps 609 mmHg 61%
    09:00 +19°C° 0 mm 1 mps 610 mmHg 51%
    10:00 +21°C° 0 mm 2 mps 611 mmHg 41%
    11:00 +23°C° 0 mm 2 mps 611 mmHg 37%
    12:00 +24°C° 0 mm 3 mps 610 mmHg 34%
    13:00 +25°C° 0 mm 3 mps 610 mmHg 31%
    14:00 +25°C° 0 mm 3 mps 610 mmHg 32%
    15:00 +25°C° 0 mm 3 mps 609 mmHg 34%
    16:00 +23°C° 0 mm 4 mps 609 mmHg 35%
    17:00 +21°C° 0 mm 3 mps 608 mmHg 42%
    18:00 +18°C° 0 mm 2 mps 608 mmHg 49%
    19:00 +16°C° 0 mm 2 mps 607 mmHg 57%
    20:00 +15°C° 0 mm 1 mps 607 mmHg 60%
    21:00 +14°C° 0 mm 1 mps 607 mmHg 64%
    22:00 +13°C° 0 mm 1 mps 607 mmHg 67%
    23:00 +13°C° 0 mm 1 mps 607 mmHg 69%
    Show more